Weather History for Bradford, PA

Change the Weather History Date:

Saturday, March 2, 2013

  Actual Average Record
Temperature  
Mean Temperature 22 °F 27 °F  
Max Temperature 24 °F 36 °F 64 °F (1991)
Min Temperature 19 °F 17 °F -21 °F (1980)
Degree Days  
Heating Degree Days 44 33  
Month to date heating degree days 66  
Since 1 July heating degree days 5636  
Cooling Degree Days 0 0  
Month to date cooling degree days 0  
Year to date cooling degree days 0  
Moisture  
Dew Point 15 °F    
Average Humidity 78    
Maximum Humidity 86    
Minimum Humidity 69    
Precipitation  
Precipitation 0.00 in 0.09 in 1.60 in (1976)
Month to date precipitation 0.19  
Year to date precipitation 5.83  
Sea Level Pressure  
Sea Level Pressure 29.85 in    
Wind  
Wind Speed 9 mph (NW)    
Max Wind Speed 15 mph    
Max Gust Speed 17 mph    
Visibility 5 miles    
Events Snow    
T = Trace of Precipitation, MM = Missing Value Source: NWS Daily Summary

Daily Weather History Graph

Daily Weather History Graph

Search for Another Location

Airport:

Trip Planner

Search our weather history database for the weather conditions in past years. The results will help you decide how hot, cold, wet, or windy it might be!

Date:

Astronomy

Mar. 02, 2013 Rise Set
Actual Time 6:47 AM EST 6:06 PM EST
Civil Twilight 6:19 AM EST 6:34 PM EST
Nautical Twilight 5:47 AM EST 7:06 PM EST
Astronomical Twilight 5:15 AM EST 7:38 PM EST
Moon 11:49 PM EST (3/2) 9:09 AM EST (3/2)
Length of Visible Light 12h 14m
Length of Day
11h 18m
Waning Gibbous, 74% of the Moon is Illuminated
Mar 2
Waning Gibbous
Mar 4
Last Quarter
Mar 11
New
Mar 19
First Quarter
Mar 27
Full

Hourly Weather History & Observations

Time (EST) Temp. Windchill Dew Point Humidity Pressure Visibility Wind Dir Wind Speed Gust Speed Precip Events Conditions
12:17 AM 21.9 °F 11.7 °F 17.1 °F 82% 29.83 in 3.0 mi NNW 9.2 mph - 0.00 in Snow Light Snow
12:30 AM 21.9 °F 13.4 °F 17.1 °F 82% 29.83 in 3.0 mi NNW 6.9 mph - 0.00 in Snow Light Snow
12:53 AM 21.9 °F 11.0 °F 16.0 °F 78% 29.90 in 4.0 mi NNW 10.4 mph - 0.00 in Snow Light Snow
1:24 AM 21.9 °F 12.5 °F 16.0 °F 78% 29.83 in 5.0 mi North 8.1 mph 17.3 mph 0.00 in Snow Light Snow
1:53 AM 21.9 °F 14.5 °F 17.1 °F 82% 29.90 in 4.0 mi NNW 5.8 mph - 0.00 in Snow Light Snow
2:23 AM 21.0 °F 9.9 °F 16.0 °F 81% 29.82 in 7.0 mi NNW 10.4 mph - 0.00 in Snow Light Snow
2:53 AM 21.0 °F 9.9 °F 15.1 °F 78% 29.89 in 10.0 mi NNW 10.4 mph - 0.00 in   Overcast
3:21 AM 21.0 °F 12.4 °F 15.1 °F 78% 29.82 in 6.0 mi NNW 6.9 mph - 0.00 in Snow Light Snow
3:53 AM 19.9 °F 11.1 °F 15.1 °F 81% 29.89 in 5.0 mi West 6.9 mph - 0.00 in Snow Light Snow
4:53 AM 19.9 °F 12.1 °F 16.0 °F 85% 29.89 in 4.0 mi WNW 5.8 mph - 0.00 in Snow Light Snow
5:20 AM 19.9 °F 12.1 °F 16.0 °F 85% 29.81 in 4.0 mi NW 5.8 mph - 0.00 in Snow Light Snow
5:30 AM 19.9 °F 13.4 °F 16.0 °F 85% 29.81 in 5.0 mi NW 4.6 mph - 0.00 in Snow Light Snow
5:53 AM 19.9 °F 10.1 °F 16.0 °F 85% 29.89 in 6.0 mi NW 8.1 mph - 0.00 in Snow Light Snow
6:50 AM 19.4 °F 10.4 °F 15.8 °F 86% 29.81 in 7.0 mi WNW 6.9 mph - 0.00 in Snow Light Snow
7:53 AM 19.9 °F 8.6 °F 14.0 °F 78% 29.91 in 2.0 mi NNW 10.4 mph - 0.00 in Snow Light Snow
8:43 AM 19.9 °F 11.1 °F 14.0 °F 78% 29.82 in 3.0 mi NW 6.9 mph - 0.00 in Snow Light Snow
8:53 AM 19.9 °F 8.6 °F 14.0 °F 78% 29.90 in 3.0 mi NW 10.4 mph - 0.00 in Snow Light Snow
9:53 AM 19.9 °F 10.1 °F 14.0 °F 78% 29.90 in 2.5 mi NNW 8.1 mph - 0.00 in Snow Light Snow
10:00 AM 19.9 °F 8.6 °F 14.0 °F 78% 29.82 in 4.0 mi NNW 10.4 mph - 0.00 in Snow Light Snow
10:53 AM 21.0 °F 11.4 °F 12.9 °F 71% 29.90 in 4.0 mi North 8.1 mph - 0.00 in Snow Light Snow
11:15 AM 21.0 °F 12.4 °F 12.9 °F 71% 29.82 in 6.0 mi NW 6.9 mph - 0.00 in   Haze
11:51 AM 21.2 °F 10.9 °F 14.0 °F 74% 29.81 in 7.0 mi NNW 9.2 mph - 0.00 in   Overcast
11:53 AM 21.0 °F 12.4 °F 14.0 °F 74% 29.89 in 7.0 mi NNW 6.9 mph - 0.00 in   Overcast
12:37 PM 21.9 °F 11.7 °F 15.1 °F 75% 29.80 in 9.0 mi NW 9.2 mph - N/A   Overcast
12:53 PM 23.0 °F 12.4 °F 15.1 °F 72% 29.87 in 9.0 mi NW 10.4 mph - N/A   Overcast
1:53 PM 24.1 °F 15.2 °F 15.1 °F 69% 29.85 in 10.0 mi West 8.1 mph - N/A   Overcast
2:53 PM 23.0 °F 11.1 °F 16.0 °F 74% 29.86 in 8.0 mi WNW 12.7 mph - N/A   Overcast
3:25 PM 23.0 °F 12.4 °F 16.0 °F 74% 29.78 in 6.0 mi NW 10.4 mph - 0.00 in Snow Light Snow
3:53 PM 23.0 °F 11.7 °F 15.1 °F 72% 29.86 in 9.0 mi NW 11.5 mph - 0.00 in   Overcast
4:27 PM 21.9 °F 9.2 °F 15.1 °F 75% 29.78 in 2.5 mi NW 13.8 mph - 0.00 in Snow Light Snow
4:53 PM 21.0 °F 8.1 °F 15.1 °F 78% 29.86 in 2.0 mi NW 13.8 mph - 0.00 in Snow Light Snow
5:02 PM 21.0 °F 7.6 °F 15.1 °F 78% 29.78 in 1.8 mi NW 15.0 mph - 0.00 in Snow Light Snow
5:11 PM 21.0 °F 8.1 °F 15.1 °F 78% 29.78 in 2.0 mi NW 13.8 mph - 0.00 in Snow Light Snow
5:42 PM 21.0 °F 9.3 °F 14.0 °F 74% 29.79 in 4.0 mi NW 11.5 mph - 0.00 in Snow Light Snow
5:53 PM 19.9 °F 6.7 °F 14.0 °F 78% 29.88 in 5.0 mi NNW 13.8 mph - 0.00 in Snow Light Snow
6:53 PM 19.9 °F 7.9 °F 12.9 °F 74% 29.89 in 7.0 mi NW 11.5 mph - 0.00 in Snow Light Snow
7:53 PM 19.9 °F 10.1 °F 14.0 °F 78% 29.89 in 7.0 mi WNW 8.1 mph - 0.00 in   Overcast
8:46 PM 19.9 °F 10.1 °F 14.0 °F 78% 29.80 in 7.0 mi WNW 8.1 mph - 0.00 in   Overcast
8:53 PM 19.9 °F 11.1 °F 14.0 °F 78% 29.89 in 7.0 mi WNW 6.9 mph - 0.00 in   Overcast
9:53 PM 19.9 °F 12.1 °F 15.1 °F 81% 29.88 in 3.0 mi West 5.8 mph - 0.00 in Snow Light Snow
10:05 PM 19.9 °F 11.1 °F 15.1 °F 81% 29.80 in 2.5 mi West 6.9 mph - 0.00 in Snow Light Snow
10:25 PM 19.9 °F 10.1 °F 15.1 °F 81% 29.79 in 4.0 mi West 8.1 mph - 0.00 in Snow Light Snow
10:53 PM 19.9 °F 7.9 °F 15.1 °F 81% 29.86 in 4.0 mi WNW 11.5 mph - 0.00 in Snow Light Snow
11:53 PM 19.9 °F 8.6 °F 16.0 °F 85% 29.85 in 4.0 mi NW 10.4 mph - 0.00 in Snow Light Snow